Regional Weather Roundup
Issued by NWS

Home | Current Version | Previous Version | Text Only | Print | Product List | Glossary On
Versions: 1 2 3 4 5 6 7 8 9 10 11 12 13 14 15 16 17 18 19 20 21 22 23 24 25 26 27 28 29 30 31 32 33 34 35 36 37 38 39 40 41 42 43 44 45 46 47 48 49 50
000
ASUS44 KLUB 232301
RWRTX
WEST TEXAS WEATHER ROUNDUP
NATIONAL WEATHER SERVICE LUBBOCK TX
600 PM CDT SAT JUL 23 2016

NOTE: "FAIR" INDICATES FEW OR NO CLOUDS BELOW 12,000 FEET WITH NO
SIGNIFICANT WEATHER AND/OR OBSTRUCTIONS TO VISIBILITY.

TXZ004-006>008-010-012-014-016-OKZ002-240000-
TEXAS PANHANDLE/OKLAHOMA PANHANDLE

CITY           SKY/WX    TMP DP  RH WIND       PRES   REMARKS
AMARILLO       SUNNY     97  50  20 S16G25    29.97F
BORGER         SUNNY    102  48  16 S16G24    29.91F HX  98
CANADIAN       SUNNY    100  58  24 SW16      29.87F HX  99
DALHART        SUNNY    103  47  15 S20       29.96F HX  99
DUMAS          SUNNY    101  47  16 S14G23    29.95S HX  98
GUYMON         SUNNY    104  50  16 S20       29.86F HX 101
HEREFORD       SUNNY    N/A N/A N/A S14G24    29.99F
PAMPA          SUNNY    100  51  19 SW15G24   29.95F HX  97
PERRYTON       SUNNY    105  47  14 S16G25    29.89F HX 101
$$

TXZ026-029-035-045-048-240000-
SOUTHERN PANHANDLE/SOUTH PLAINS/ROLLING PLAINS

CITY           SKY/WX    TMP DP  RH WIND       PRES   REMARKS
CHILDRESS      SUNNY     99  58  25 S9        29.87F HX  98
SEMINOLE       SUNNY     98  49  18 SE13      29.97F HX  95
LUBBOCK        MOSUNNY   97  55  24 SW7G20    29.97F HX  95
PLAINVIEW      SUNNY    N/A N/A N/A S9G18     29.97F
SNYDER           N/A     97  61  29 SE8G17    29.94F HX  97
$$

TXZ052-054-060>062-072-078-127-140-154-169-240000-
PERMIAN BASIN/CONCHO VALLEY/BIG COUNTRY/EDWARDS PLATEAU

CITY           SKY/WX    TMP DP  RH WIND       PRES   REMARKS
ABILENE        SUNNY     99  61  28 SE13G28   29.91F HX  99
BIG SPRING     MOSUNNY   98  59  27 S10G18    29.95F HX  98
JUNCTION       SUNNY     99  60  27 SE10      29.90F HX  99
MIDLAND        SUNNY     99  54  22 S13G20    29.93F HX  97
ODESSA         SUNNY     98  54  22 S14G20    29.95F HX  96
SAN ANGELO     SUNNY    100  59  25 S9        29.89F HX 100
SONORA         SUNNY     99  59  26 SE5G13    29.95F HX  98
SWEETWATER     MOSUNNY   98  56  25 S10       29.95F HX  96
WINK           SUNNY    103  51  17 E13G18    29.88F HX 100
$$

TXZ055-058-074-075-080-082-240000-
FAR WEST/SOUTHWEST MOUNTAINS/TRANS PECOS

CITY           SKY/WX    TMP DP  RH WIND       PRES   REMARKS
ALPINE         MOSUNNY   97  49  19 S9        30.07F
DRYDEN           N/A    100  59  25 SE13G22   29.87F HX 100
EL PASO        MOSUNNY  103  39  11 S7        29.93F HX  97
FORT STOCKTON  SUNNY    100  53  20 SE15G26   29.91F HX  98
GUADALUPE PASS SUNNY     95  38  13 VRB7      30.11F
MARFA          SUNNY     95  51  22 SE13G20   30.06F
PECOS          SUNNY    103  47  15 CALM      29.86F HX  99
PRESIDIO       FAIR     103  51  17 S3        29.87F HX 101
$$

TXZ014-016-019-021>030-083-240000
TEXAS TECH WEST TEXAS MESONET/TEXAS PANHANDLE/NORTHERN SOUTH PLAINS

CITY           SKY/WX    TMP DP  RH WIND       PRES   REMARKS
ABERNATHY 5ENE   N/A     96  52  22 S10G18    30.00F
AMARILLO 9NNE    N/A    100  50  18 SE21      29.94F HX  97
AMARILLO 7SSE    N/A     98  49  19 S14       29.99F
AMHERST 1NE      N/A     96  48  19 SE14      30.00F
BOOTLEG 11WNW    N/A     97  48  19 S10       30.04F
CANADIAN 6E      N/A    101  59  24 S21       29.87F HX 101
CAPROCK CYN SP   N/A     99  54  22 S12       29.94S HX  97
CHILDRESS 2NNE   N/A    100  56  22 S13G21    29.89F HX  99
CLARENDON 2WSW   N/A    100  52  20 S9        29.95F HX  97
CLAUDE 12SW      N/A     98  52  20 S10G17    29.98F HX  95
DIMMITT 2NE      N/A     96  49  19 SE17G25   30.01F
FLOYDADA 2NNE    N/A     97  49  19 S9G17     29.98F
FRIONA 2NE       N/A     98  44  15 S13G21    30.01F
GOODLETT 3W      N/A    102  55  21 S13       29.87S HX 101
HART 3N          N/A     96  49  19 S10       30.01S
HEREFORD 2NW     N/A     97  44  16 S13       30.01F
MCLEAN 1E        N/A     98  53  22 S15       29.94F HX  95
MEMPHIS 1NE      N/A    101  55  21 S8        29.89F HX  99
MULESHOE 2SSW    N/A     98  44  15 S14       30.00F
OLTON 6S         N/A     96  49  19 S15       30.00F
PALO DURO SP     N/A     99  51  19 S8        29.99F HX  96
PAMPA 2E         N/A     96  52  22 S16G24    29.96F
PLAINVIEW 1S     N/A     97  52  22 SE13G21   29.99F
SILVERTON 7ESE   N/A     96  53  23 S10G16    29.96F
TULIA 2ENE       N/A     97  54  23 S13G22    30.00F
TURKEY 2WSW      N/A    100  55  22 S10       29.92F HX  98
UMBARGER 3NNE    N/A     98  48  18 S18       30.00F
$$

TXZ033>036-039>041-045>048-240000
TEXAS TECH WEST TEXAS MESONET/SOUTH PLAINS

CITY           SKY/WX    TMP DP  RH WIND       PRES   REMARKS
AIKEN 3WSW       N/A     94  61  32 S13       30.00F
ANDREWS 2NE      N/A     99  47  17 S10G16    29.98F HX  95
ANTON 6SSW       N/A     96  52  22 S10       29.99F
BROWNFIELD 2S    N/A     96  48  19 S12       29.99F
DENVR CTY 7WNW   N/A     97  43  15 SE15      29.99F
GAIL 2ESE        N/A     99  58  26 S12G17    29.93F HX  98
LAMESA 2SE       N/A     97  54  23 SE13G20   29.97F HX  95
LEVELLAND 4S     N/A     97  49  19 SE13      30.00F
LUBBOCK 3WNW     N/A     98  51  20 SE12G21   29.99F
MORTON 1ENE      N/A     97  47  17 S12       30.00F
ODONNELL 1N      N/A     97  48  18 S9G17     29.98F
PLAINS 3N        N/A     97  46  17 SE12      30.01F
RALLS 1SE        N/A     97  55  24 S10G22    29.98F
REESE CENTER     N/A     96  49  20 S12G20    30.00F
SEAGRAVES 1SW    N/A     98  49  19 SE8       29.98F HX  95
SEMINOLE 2NNE    N/A     98  47  17 S10G16    29.97F
SLATON 2NE       N/A     98  53  22 S13       29.98F HX  95
SNYDER 3E        N/A    100  57  23 SE7G13    29.94F HX  99
SUNDOWN 8SW      N/A     98  46  16 S13       30.00F
TAHOKA 3NNE      N/A     97  53  22 SE8       29.98F HX  95
WOLFFORTH 6SSW   N/A     96  53  23 S10       29.99F
$$

TXZ031-032-036>038-042>044-240000-
TEXAS TECH WEST TEXAS MESONET/ROLLING PLAINS

CITY           SKY/WX    TMP DP  RH WIND       PRES   REMARKS
ASPERMONT 3NE    N/A    102  58  23 SE9       29.89F HX 101
FLUVANNA 3WNW    N/A     97  55  24 SE14      29.96F HX  95
GRAHAM 5SSW      N/A     97  53  22 S15       29.96F HX  95
GUTHRIE 10WSW    N/A     99  56  23 S7        29.89F HX  98
HASKELL 1NW      N/A     99  54  22 S9        29.89F HX  97
JAYTON 1SSE      N/A    101  56  22 SE14G22   29.90F HX  99
KNOX CITY 3NW    N/A    102  56  21 SE13      29.88F HX 101
LK A HENRY 1NW   N/A    101  56  22 S13       29.92F HX  99
NORTHFIELD 1S    N/A    101  58  24 SW6       29.89F HX 100
PADUCAH 10SW     N/A     99  58  25 S10G17    29.90F HX  99
POST 1NE         N/A    100  54  21 S9        29.94S HX  97
RRING SPRGS 3N   N/A     99  57  24 S12       29.94F HX  98
SEYMOUR 3NW      N/A    100  58  24 SE10G17   29.87F HX 100
SPUR 1W          N/A     99  52  20 S14       29.92F HX  96
WHITE RVR 6NE    N/A    100  54  21 S13       29.94F HX  97
$$

TXZ052-054-060>062-072-078-127-140-154-169-240000-
TEXAS TECH WEST TEXAS MESONET/PERMIAN BASIN/
CONCHO VALLEY/BIG COUNTRY/EDWARDS PLATEAU

CITY           SKY/WX    TMP DP  RH WIND       PRES   REMARKS
COYANOSA 2N      N/A    103  54  19 E14G20    29.88F HX 101
JUNCTION 1SSW    N/A    100  62  28 S9        29.91F HX 101
MERTZON 3NNE     N/A    101  61  26 S13       29.92F HX 102
SAN ANGELO 7NW   N/A    100  56  22 SE13      29.91F HX  99
STRLNG CT 4WSW   N/A    100  59  25 SE14      29.94F HX 100
ST LAWRNCE 5SW   N/A     97  57  26 S9G15     29.95F HX  95
SWEETWATR 11SW   N/A     98  62  30 SE17      29.96F HX  99
WALL 1E          N/A    100  58  24 SE10      29.91F HX  99
$$

TXZ055-058-074-075-080-082-240000-
TEXAS TECH WEST TEXAS MESONET/FAR WEST/SOUTHWEST MOUNTAINS/TRANS PECOS

CITY           SKY/WX    TMP DP  RH WIND       PRES   REMARKS
PRSMN GAP BBNP   N/A    101  47  16 N6        29.91F HX  97
GUADLPE MTN NP   N/A     94  36  13 E6        30.13S
$$



USA.gov is the U.S. government's official web portal to all federal, state and local government web resources and services.